TimeEDT,TemperatureF,Dew PointF,Humidity,Sea Level PressureIn,VisibilityMPH,Wind Direction,Wind SpeedMPH,Gust SpeedMPH,PrecipitationIn,Events,Conditions,WindDirDegrees,DateUTC
12:53 AM,66.9,66.0,97,30.01,4.0,Calm,Calm,-,N/A,,Clear,0,2013-10-06 04:53:00
1:53 AM,64.9,63.0,93,30.01,2.5,Calm,Calm,-,N/A,,Clear,0,2013-10-06 05:53:00
2:13 AM,64.4,64.4,100,30.03,1.2,WNW,3.5,-,N/A,,Partly Cloudy,290,2013-10-06 06:13:00
2:16 AM,64.4,62.6,94,30.03,0.8,WNW,3.5,-,N/A,,Mist,290,2013-10-06 06:16:00
2:23 AM,64.4,64.4,100,30.03,0.2,Calm,Calm,-,N/A,Fog,Fog,0,2013-10-06 06:23:00
2:53 AM,64.0,64.0,100,30.00,0.2,Calm,Calm,-,N/A,Fog,Fog,0,2013-10-06 06:53:00
3:38 AM,64.4,64.4,100,30.02,1.0,Calm,Calm,-,N/A,,Mist,0,2013-10-06 07:38:00
3:49 AM,64.4,62.6,94,30.03,0.8,Calm,Calm,-,N/A,,Mist,0,2013-10-06 07:49:00
3:53 AM,63.0,63.0,100,30.00,0.8,Calm,Calm,-,N/A,,Clear,0,2013-10-06 07:53:00
4:01 AM,62.6,62.6,100,30.02,0.2,Calm,Calm,-,N/A,Fog,Fog,0,2013-10-06 08:01:00
4:11 AM,62.6,62.6,100,30.03,1.0,Calm,Calm,-,N/A,,Clear,0,2013-10-06 08:11:00
4:23 AM,62.6,62.6,100,30.02,0.5,Calm,Calm,-,N/A,Fog,Fog,0,2013-10-06 08:23:00
4:46 AM,62.6,62.6,100,30.02,0.2,Calm,Calm,-,N/A,Fog,Fog,0,2013-10-06 08:46:00
4:53 AM,63.0,63.0,100,29.99,0.5,Calm,Calm,-,N/A,Fog,Fog,0,2013-10-06 08:53:00
5:11 AM,62.6,62.6,100,30.02,1.0,Calm,Calm,-,N/A,,Clear,0,2013-10-06 09:11:00
5:37 AM,64.4,62.6,94,30.01,2.0,Calm,Calm,-,N/A,,Clear,0,2013-10-06 09:37:00
5:47 AM,62.6,62.6,100,30.02,0.8,Calm,Calm,-,N/A,,Clear,0,2013-10-06 09:47:00
5:53 AM,64.0,64.0,100,29.99,0.8,Calm,Calm,-,N/A,,Clear,0,2013-10-06 09:53:00
6:01 AM,64.4,62.6,94,30.01,2.0,Calm,Calm,-,N/A,,Clear,0,2013-10-06 10:01:00
6:06 AM,64.4,62.6,94,30.02,1.0,Calm,Calm,-,N/A,,Mist,0,2013-10-06 10:06:00
6:09 AM,64.4,62.6,94,30.02,0.5,Calm,Calm,-,N/A,Fog,Fog,0,2013-10-06 10:09:00
6:38 AM,62.6,62.6,100,30.02,1.0,Calm,Calm,-,N/A,,Mist,0,2013-10-06 10:38:00
6:44 AM,62.6,62.6,100,30.02,0.8,Calm,Calm,-,N/A,,Mist,0,2013-10-06 10:44:00
6:53 AM,63.0,62.1,97,30.00,0.2,Calm,Calm,-,N/A,Fog,Fog,0,2013-10-06 10:53:00
7:00 AM,62.6,62.6,100,30.02,1.0,Calm,Calm,-,N/A,,Mist,0,2013-10-06 11:00:00
7:03 AM,62.6,62.6,100,30.02,2.0,Calm,Calm,-,N/A,,Partly Cloudy,0,2013-10-06 11:03:00
7:24 AM,64.4,62.6,94,30.02,1.5,Calm,Calm,-,N/A,,Clear,0,2013-10-06 11:24:00
7:53 AM,64.9,64.0,97,30.00,2.0,WNW,3.5,-,N/A,,Partly Cloudy,290,2013-10-06 11:53:00
8:02 AM,64.4,64.4,100,30.03,1.2,Calm,Calm,-,N/A,,Partly Cloudy,0,2013-10-06 12:02:00
8:34 AM,66.2,64.4,94,30.04,2.5,Calm,Calm,-,N/A,,Partly Cloudy,0,2013-10-06 12:34:00
8:53 AM,68.0,66.0,93,30.01,3.0,Calm,Calm,-,N/A,,Clear,0,2013-10-06 12:53:00
9:53 AM,71.1,64.9,81,30.01,10.0,Calm,Calm,-,N/A,,Clear,0,2013-10-06 13:53:00
10:53 AM,77.0,63.0,62,29.99,10.0,South,10.4,-,N/A,,Clear,190,2013-10-06 14:53:00
11:53 AM,79.0,63.0,58,29.97,10.0,SSW,10.4,-,N/A,,Clear,210,2013-10-06 15:53:00
12:53 PM,81.0,62.1,52,29.96,10.0,South,9.2,-,N/A,,Clear,190,2013-10-06 16:53:00
1:53 PM,84.0,60.1,44,29.92,10.0,South,8.1,-,N/A,,Clear,170,2013-10-06 17:53:00
2:53 PM,86.0,59.0,40,29.90,10.0,South,10.4,-,N/A,,Clear,190,2013-10-06 18:53:00
3:53 PM,86.0,59.0,40,29.88,10.0,SSE,11.5,-,N/A,,Scattered Clouds,150,2013-10-06 19:53:00
4:53 PM,84.9,55.9,37,29.86,10.0,South,10.4,20.7,N/A,,Mostly Cloudy,180,2013-10-06 20:53:00
5:53 PM,82.9,59.0,44,29.85,10.0,SSE,17.3,27.6,N/A,,Mostly Cloudy,150,2013-10-06 21:53:00
6:53 PM,80.1,59.0,48,29.86,10.0,South,13.8,21.9,N/A,,Clear,170,2013-10-06 22:53:00
7:53 PM,77.0,59.0,54,29.88,10.0,South,13.8,-,N/A,,Clear,180,2013-10-06 23:53:00
8:53 PM,75.0,60.1,60,29.88,10.0,SSE,15.0,21.9,N/A,,Clear,160,2013-10-07 00:53:00
9:53 PM,73.9,61.0,64,29.88,10.0,South,12.7,25.3,N/A,,Clear,170,2013-10-07 01:53:00
10:53 PM,73.0,61.0,66,29.87,10.0,South,17.3,26.5,N/A,,Clear,170,2013-10-07 02:53:00
11:53 PM,72.0,61.0,68,29.86,10.0,South,16.1,20.7,N/A,,Clear,170,2013-10-07 03:53:00